EW8697 Weather Reports


time (UTC)temp
C
wind
direction
speed
KPH
gust
KPH
rain 1hr
cm
rain 24hr
cm
rain mn
cm
humidity
%
barometer
mb
20260508054526 8 123 0.0 0.0 0.00 0.00 0.00 66 1008.7
20260508053026 8 124 0.0 0.0 0.00 0.00 0.00 65 1008.8
20260508051530 8 124 0.0 0.0 0.00 0.00 0.00 64 1009.0
20260508050025 8 124 0.0 0.0 0.00 0.00 0.00 64 1009.0
20260508044516 8 124 0.0 0.0 0.00 0.00 0.00 64 1009.1
20260508043013 8 124 0.0 0.0 0.00 0.00 0.00 64 1009.1
20260508041527 8 123 0.0 1.6 0.00 0.00 0.00 64 1009.0
20260508040038 7 124 0.0 0.0 0.00 0.00 0.00 66 1009.1
20260508034529 7 123 0.0 0.0 0.00 0.00 0.00 69 1009.1
20260508033017 6 124 0.0 0.0 0.00 0.00 0.00 71 1009.1
20260508031516 6 124 0.0 0.0 0.00 0.00 0.00 70 1008.8
20260508030028 6 124 0.0 0.0 0.00 0.00 0.00 69 1008.9
20260508024526 6 123 0.0 0.0 0.00 0.00 0.00 67 1008.8
20260508023021 6 124 0.0 0.0 0.00 0.00 0.00 67 1008.8
20260508021515 6 123 0.0 0.0 0.00 0.00 0.00 63 1008.9
20260508020011 7 123 0.0 0.0 0.00 0.00 0.00 62 1008.7
20260508014513 7 123 0.0 0.0 0.00 0.00 0.00 59 1008.8
20260508013025 8 124 0.0 0.0 0.00 0.00 0.00 55 1008.6
20260508011520 8 123 0.0 0.0 0.00 0.00 0.00 54 1008.5
20260508010020 9 124 0.0 0.0 0.00 0.00 0.00 51 1008.6
20260508004517 9 124 0.0 0.0 0.00 0.00 0.00 50 1008.5
20260508003012 10 124 0.0 0.0 0.00 0.00 0.00 48 1008.4
20260508001526 10 123 0.0 0.0 0.00 0.00 0.00 46 1008.2
20260508000022 11 123 0.0 0.0 0.00 0.00 0.00 44 1008.1
20260507234530 11 124 0.0 6.4 0.00 0.00 0.00 44 1007.9
20260507233018 11 124 0.0 1.6 0.00 0.00 0.00 44 1007.8
20260507231509 11 123 0.0 0.0 0.00 0.00 0.00 44 1007.8
20260507230030 11 123 0.0 4.8 0.00 0.00 0.00 45 1008.0
20260507224522 12 124 0.0 0.0 0.00 0.00 0.00 42 1007.9
20260507223021 12 124 0.0 6.4 0.00 0.00 0.00 44 1007.9
20260507221527 11 124 0.0 4.8 0.00 0.00 0.00 51 1008.0
20260507220012 12 124 0.0 11.3 0.00 0.00 0.00 50 1007.9
20260507214511 12 123 0.0 25.7 0.00 0.00 0.00 47 1007.7
20260507213031 12 124 0.0 14.5 0.00 0.00 0.00 44 1007.5
20260507211521 12 123 0.0 17.7 0.00 0.00 0.00 45 1007.3
20260507210026 12 123 0.0 17.7 0.00 0.00 0.00 47 1007.1
20260507204513 12 123 0.0 14.5 0.00 0.00 0.00 47 1007.1
20260507203016 12 123 0.0 11.3 0.00 0.00 0.00 46 1006.9
20260507201528 13 124 0.0 20.9 0.00 0.00 0.00 44 1006.9
20260507200024 13 123 0.0 3.2 0.00 0.00 0.00 45 1006.9
20260507194531 12 123 0.0 12.9 0.00 0.00 0.00 46 1007.1
20260507193017 13 123 0.0 19.3 0.00 0.00 0.00 44 1007.2
20260507191512 13 124 0.0 14.5 0.00 0.00 0.00 49 1007.3
20260507190013 12 123 0.0 17.7 0.00 0.00 0.00 45 1007.3
20260507184535 12 123 0.0 12.9 0.00 0.00 0.00 45 1007.4
20260507183024 13 124 0.0 4.8 0.00 0.00 0.00 48 1007.4
20260507181521 12 124 0.0 4.8 0.00 0.00 0.00 45 1007.3
20260507180018 12 123 0.0 1.6 0.00 0.00 0.00 48 1007.5
20260507174513 12 123 0.0 9.7 0.00 0.00 0.00 47 1007.6
20260507173045 12 123 0.0 14.5 0.00 0.00 0.00 45 1007.6
20260507171520 12 123 0.0 9.7 0.00 0.00 0.00 42 1007.6
20260507170021 12 124 0.0 14.5 0.00 0.00 0.00 45 1007.7
20260507164521 12 123 0.0 19.3 0.00 0.00 0.00 46 1007.8
20260507163010 12 124 0.0 1.6 0.00 0.00 0.00 48 1007.8
20260507161528 12 123 0.0 6.4 0.00 0.00 0.00 47 1007.7
20260507160027 12 124 0.0 0.0 0.00 0.00 0.00 51 1007.8
20260507154520 12 124 0.0 1.6 0.00 0.00 0.00 46 1007.9
20260507153018 11 124 0.0 8.0 0.00 0.00 0.00 49 1008.0
20260507151510 11 123 0.0 9.7 0.00 0.00 0.00 52 1008.0
20260507150034 12 123 0.0 0.0 0.00 0.00 0.00 53 1008.1
20260507144534 12 123 0.0 0.0 0.00 0.00 0.00 59 1008.2
20260507143026 10 123 0.0 0.0 0.00 0.00 0.00 65 1008.4
20260507141520 10 124 0.0 0.0 0.00 0.00 0.00 67 1008.4
20260507140019 10 124 0.0 0.0 0.00 0.00 0.00 69 1008.6
20260507134511 9 124 0.0 0.0 0.00 0.00 0.00 73 1008.8
20260507133031 8 122 0.0 0.0 0.00 0.00 0.00 73 1009.0
20260507131520 8 124 0.0 0.0 0.00 0.00 0.00 75 1008.9
20260507130019 8 124 0.0 0.0 0.00 0.00 0.00 73 1008.9
20260507124520 8 124 0.0 0.0 0.00 0.00 0.00 76 1008.8
20260507123012 7 124 0.0 0.0 0.00 0.00 0.00 78 1008.8
20260507121514 7 123 0.0 1.6 0.00 0.00 0.00 79 1008.8
20260507120024 6 124 0.0 0.0 0.00 0.00 0.00 84 1008.8
20260507114517 5 124 0.0 0.0 0.00 0.00 0.00 88 1008.7
20260507113037 5 124 0.0 0.0 0.00 0.00 0.00 90 1008.7
20260507111511 4 124 0.0 0.0 0.00 0.00 0.00 90 1008.6
20260507110029 3 123 0.0 0.0 0.00 0.00 0.00 89 1008.6
20260507104534 3 124 0.0 0.0 0.00 0.00 0.00 89 1008.4
20260507103026 3 124 0.0 0.0 0.00 0.00 0.00 89 1008.3
20260507101520 3 124 0.0 0.0 0.00 0.00 0.00 88 1008.3
20260507100013 4 124 0.0 0.0 0.00 0.00 0.00 88 1008.3
20260507094507 4 123 0.0 0.0 0.00 0.13 0.00 88 1008.3
20260507091524 4 124 0.0 0.0 0.00 0.13 0.00 89 1008.4
20260507090023 3 124 0.0 0.0 0.00 0.13 0.00 89 1008.5
20260507084515 3 123 0.0 0.0 0.00 0.28 0.00 89 1008.5
20260507083010 3 123 0.0 0.0 0.00 0.28 0.00 88 1008.6
20260507081535 3 123 0.0 0.0 0.00 0.28 0.00 87 1008.6
20260507080024 4 123 0.0 0.0 0.00 0.28 0.00 87 1008.6
20260507074518 4 124 0.0 0.0 0.00 0.61 0.00 87 1008.6
20260507073024 4 124 0.0 0.0 0.00 0.61 0.00 87 1008.7
20260507071511 4 124 0.0 0.0 0.00 0.61 0.00 87 1008.6
20260507070026 3 124 0.0 0.0 0.00 0.61 0.00 87 1008.7
20260507064527 4 124 0.0 0.0 0.00 0.91 0.00 86 1008.7
20260507063024 4 123 0.0 0.0 0.00 0.91 0.00 85 1008.9
20260507061518 5 124 0.0 0.0 0.00 0.91 0.00 84 1009.0
20260507060015 5 124 0.0 0.0 0.00 0.91 0.00 83 1009.2